Location: Caltech
(34.1382°N, 118.1253°W)
Time: 21:33:13
(UTC-07:00)

Cosmos 1697 Rocket - Visible Passes

Search period start: 20 April 2014 00:00
Search period end: 30 April 2014 00:00
Orbit: 833 x 843 km, 71.0° (Epoch: 20 April)

Date Brightness Start Highest point End Pass type
(mag) Time Alt. Az. Time Alt. Az. Time Alt. Az.
20 Apr 4.0 05:31:26 10° S 05:36:38 42° ESE 05:41:52 10° NE visible
21 Apr 4.1 05:15:30 10° S 05:20:38 38° ESE 05:25:46 10° NE visible
22 Apr 4.2 04:59:36 10° SSE 05:04:37 35° ESE 05:09:40 10° NE visible
23 Apr 4.3 04:43:42 10° SSE 04:48:37 33° ESE 04:53:33 10° NE visible
24 Apr 4.3 04:27:49 10° SSE 04:32:36 30° ESE 04:37:25 10° NE visible
25 Apr 4.4 04:11:56 10° SSE 04:16:36 28° ESE 04:21:17 10° NE visible
26 Apr 4.5 03:56:23 11° SSE 04:00:36 26° ESE 04:05:08 10° NE visible
26 Apr 3.4 05:39:15 10° SW 05:44:20 35° WNW 05:49:27 10° N visible
27 Apr 4.6 03:41:21 14° SE 03:44:36 24° E 03:48:57 10° NE visible
27 Apr 3.3 05:23:07 10° SW 05:28:16 38° WNW 05:33:29 10° N visible
28 Apr 4.6 03:26:13 17° SE 03:28:36 22° E 03:32:46 10° NE visible
28 Apr 3.2 05:07:59 15° SW 05:12:13 41° WNW 05:17:30 10° N visible
29 Apr 4.6 03:11:00 18° ESE 03:12:36 20° E 03:16:34 10° NE visible
29 Apr 3.1 04:52:46 21° SW 04:56:09 44° WNW 05:01:31 10° N visible
